Mayo, Yukon Territory

3:57 PM PST on February 17, 2018 (GMT -0800)
Mayo

Weather History for CYMA - December, 2012

Change the Weather History Date:

Saturday, December 29, 2012

  Actual Average Record
Temperature  
Mean Temperature -3 °F -  
Max Temperature 5 °F -7 °F 35 °F (2006)
Min Temperature -11 °F -26 °F -49 °F (1998)
Degree Days  
Heating Degree Days 68    
Moisture  
Dew Point -5 °F    
Average Humidity 80    
Maximum Humidity 92    
Minimum Humidity 72    
Precipitation  
Precipitation 0.00 in 0.03 in - ()
Sea Level Pressure  
Sea Level Pressure 30.01 in    
Wind  
Wind Speed 1 mph ()    
Max Wind Speed 7 mph    
Max Gust Speed -    
Visibility 18.3 miles    
Events Snow    
Averages and records for this station are not official NWS values.
T = Trace of Precipitation, MM = Missing Value Source: Averaged Metar Reports

Daily Weather History Graph

Daily Weather History Graph

Search for Another Location

Airport or City:

Trip Planner

Search our weather history database for the weather conditions in past years. The results will help you decide how hot, cold, wet, or windy it might be!

Date:

Astronomy

Dec. 29, 2012 Rise Set
Actual Time 10:49 AM PST 3:22 PM PST
Civil Twilight 9:35 AM PST 4:36 PM PST
Nautical Twilight 8:28 AM PST 5:43 PM PST
Astronomical Twilight 7:30 AM PST 6:41 PM PST
Moon 5:56 PM PST (12/29) 10:38 AM PST (12/29)
Length of Visible Light 7h 01m
Length of Day
4h 33m
Full, 98% of the Moon is Illuminated
Dec 29
Full
Jan 4
Last Quarter
Jan 11
New
Jan 18
First Quarter
Jan 26
Full

Hourly Weather History & Observations

Time (PST) Temp. Windchill Dew Point Humidity Pressure Visibility Wind Dir Wind Speed Gust Speed Precip Events Conditions
12:00 AM -2.2 °F - -7.6 °F 78% 30.07 in 15.0 mi Calm Calm - N/A Snow Light Snow
1:00 AM -2.2 °F - -7.6 °F 78% 30.08 in 15.0 mi Calm Calm - N/A Snow Light Snow
2:00 AM -2.2 °F - -7.6 °F 78% 30.08 in 15.0 mi Calm Calm - N/A Snow Light Snow
3:00 AM -2.2 °F - -7.6 °F 78% 30.10 in 15.0 mi Calm Calm - N/A Snow Light Snow
4:00 AM -0.4 °F - -7.6 °F 72% 30.09 in 15.0 mi Calm Calm - N/A Snow Light Snow
5:00 AM -0.4 °F - -5.8 °F 78% 30.08 in 15.0 mi ENE 2.3 mph - N/A Snow Light Snow
6:00 AM 1.4 °F - -4.0 °F 78% 30.08 in 15.0 mi East 2.3 mph - N/A Snow Light Snow
7:00 AM 3.2 °F - -4.0 °F 72% 30.06 in 15.0 mi Calm Calm - N/A Snow Light Snow
8:00 AM 3.2 °F - -4.0 °F 72% 30.04 in 15.0 mi Calm Calm - N/A Snow Light Snow
9:00 AM 3.2 °F -6.2 °F -2.2 °F 78% 30.02 in 20.0 mi ENE 4.6 mph - N/A Snow Light Snow
10:00 AM 3.2 °F - -0.4 °F 85% 29.99 in 20.0 mi Calm Calm - N/A Snow Light Snow
11:00 AM 3.2 °F - -2.2 °F 78% 29.97 in 20.0 mi Calm Calm - N/A Snow Light Snow
12:00 PM 3.2 °F - -0.4 °F 85% 29.97 in 20.0 mi East 2.3 mph - N/A Snow Light Snow
1:00 PM 3.2 °F -6.2 °F -2.2 °F 78% 29.95 in 20.0 mi East 4.6 mph - N/A   Mostly Cloudy
2:00 PM 3.2 °F -9.1 °F -2.2 °F 78% 29.95 in 20.0 mi NNE 6.9 mph - N/A   Mostly Cloudy
3:00 PM 3.2 °F -4.2 °F -2.2 °F 78% 29.95 in 20.0 mi East 3.5 mph - N/A   Mostly Cloudy
4:00 PM 5.0 °F - -0.4 °F 78% 29.93 in 20.0 mi East 2.3 mph - N/A   Overcast
4:48 PM - - - N/A% - 20.0 mi South 3.5 mph - N/A   Unknown
5:00 PM 5.0 °F - -0.4 °F 78% 29.94 in 20.0 mi Calm Calm - N/A Snow Light Snow
6:00 PM 3.2 °F - -2.2 °F 78% 29.94 in 20.0 mi Calm Calm - N/A Snow Light Snow
6:38 PM - - - N/A% - 20.0 mi Calm Calm - N/A   Partly Cloudy
7:00 PM -2.2 °F - -7.6 °F 78% 29.95 in 20.0 mi Calm Calm - N/A   Partly Cloudy
8:00 PM -9.4 °F - -11.2 °F 92% 29.95 in 20.0 mi Calm Calm - N/A   Clear
9:00 PM -9.4 °F -18.6 °F -11.2 °F 92% 29.97 in 20.0 mi SW 3.5 mph - N/A   Clear
10:00 PM -11.2 °F - -14.8 °F 84% 29.98 in 20.0 mi Calm Calm - N/A   Clear
11:00 PM -11.2 °F - -14.8 °F 84% 29.99 in 20.0 mi Calm Calm - N/A   Clear